Wind_Speed
18 16 17 22 20 15 7 12 16 19 18 14 11 13 16 17 16 15 14 15 16 18 19 20 20 19 18 16 17 16 17 17 16
14 12 15 20 29 20 12 13 18 21 19 18 17 20 21 23 24 21 20 18 19 23 22 22 24 22 22 20 18 17 17 17 16
13 17 18 20 27 22 21 13 19 24 22 19 20 22 26 26 26 26 26 23 30 26 25 25 25 26 24 22 19 19 20 20 18
19 19 18 21 26 27 21 19 24 24 24 22 24 28 30 29 29 27 29 29 29 25 25 27 25 24 25 24 23 22 20 20 20
14 24 21 21 27 23 23 20 21 28 28 25 28 30 34 37 37 32 30 33 31 31 34 32 27 27 23 22 20 21 20 19 19
21 17 26 25 22 23 27 25 30 33 33 28 21 30 36 41 42 36 32 34 34 35 35 36 29 27 23 20 20 21 21 19 18
29 20 23 30 28 22 25 30 33 35 24 31 28 37 42 43 45 42 38 33 32 31 27 25 34 28 20 20 21 23 22 20 17
19 32 20 30 33 30 31 31 34 34 35 36 38 44 46 48 42 38 29 27 26 24 23 23 27 17 20 22 23 25 21 17 17
24 29 24 22 34 35 36 37 39 41 42 43 46 45 46 40 33 28 24 23 24 25 24 26 25 19 24 24 28 30 27 20 19
27 27 26 26 27 35 41 38 41 43 44 45 46 43 41 37 29 26 29 26 21 23 27 31 26 22 21 26 26 33 33 30 28
29 26 27 26 30 31 33 40 44 44 44 44 43 43 40 38 35 33 35 29 29 29 29 28 27 30 30 28 28 31 39 41 38
26 27 26 28 31 29 34 39 42 43 45 47 47 47 45 40 38 37 39 39 34 31 32 30 29 28 25 26 28 35 34 31 30
35 29 28 29 31 32 30 34 38 41 46 51 53 51 48 44 39 36 39 38 36 34 33 35 34 32 31 29 29 30 26 26 30
38 37 33 32 33 32 33 33 34 37 40 42 43 45 46 44 38 38 39 40 39 38 37 36 35 34 34 30 28 29 28 27 26
40 39 38 36 35 35 35 34 35 36 36 39 40 40 40 40 41 39 39 41 42 42 41 41 38 37 37 36 34 33 36 33 29
43 40 39 39 39 38 36 37 36 36 38 39 40 41 43 43 42 42 42 42 43 44 45 45 43 41 39 39 39 38 35 35 37
42 41 41 42 42 41 39 39 39 39 40 41 42 43 45 46 48 47 48 49 49 49 48 48 47 45 42 42 43 42 40 39 37
42 41 41 42 42 42 41 42 42 43 43 44 46 47 49 50 52 53 55 55 56 56 56 55 54 52 49 46 46 46 46 45 44
42 41 41 42 42 42 43 44 45 46 47 49 50 51 52 52 52 53 55 57 58 59 61 60 61 58 55 53 51 49 47 48 46
43 42 42 41 41 42 43 44 45 47 48 50 51 52 53 54 55 55 56 58 60 58 56 56 57 61 62 59 54 52 52 51 52
Wind_Direction
240 244 262 275 279 301 282 321 325 347 347 344 343 352 354 356 359 355 312 298 290 281 275 273 283 273 277 277 281 275 270 275 276
223 239 237 264 275 296 292 296 316 320 338 332 330 332 333 339 337 331 325 321 308 292 280 274 259 263 263 266 266 271 269 266 270
250 246 251 261 261 283 269 290 297 306 316 325 321 322 323 328 329 325 319 315 317 299 273 274 275 273 266 260 260 261 264 265 266
254 248 246 256 250 266 260 274 285 295 300 301 306 308 311 314 321 318 315 317 315 296 283 261 268 269 270 265 259 257 256 263 267
305 249 251 259 256 246 285 262 268 284 286 289 292 299 303 309 314 312 308 310 312 309 308 247 246 261 260 264 266 261 259 257 260
324 294 257 258 271 272 265 267 284 274 266 279 293 298 301 305 310 312 307 305 309 309 306 252 238 244 251 257 264 261 256 255 256
311 310 270 267 266 265 267 262 265 257 303 297 297 294 296 300 302 302 305 304 304 310 321 245 243 235 255 262 268 265 258 252 249
304 303 295 262 265 257 256 261 270 276 278 283 284 288 295 299 303 302 305 306 305 300 298 293 291 281 268 269 269 270 252 252 258
302 304 305 273 259 260 260 262 265 269 274 277 281 288 293 296 305 299 292 294 301 299 291 275 268 276 279 276 274 271 271 249 244
307 303 299 284 274 262 259 264 268 271 274 277 282 286 289 295 298 304 297 290 285 288 286 291 294 287 287 284 274 288 280 262 240
308 300 295 287 275 280 272 263 266 271 276 278 281 286 289 293 290 294 300 293 284 283 281 283 289 283 280 282 274 282 299 286 260
305 296 292 285 284 281 274 270 269 269 272 276 280 283 287 290 289 290 294 294 289 289 289 287 281 282 282 281 267 273 285 281 287
308 299 292 284 284 286 279 274 271 270 270 273 276 281 285 287 285 283 291 286 285 285 283 283 285 282 280 280 276 276 289 292 289
300 296 293 288 285 286 282 278 274 270 268 270 274 276 279 282 282 282 279 282 284 285 284 280 283 283 283 284 279 281 285 273 267
293 292 294 291 286 287 282 277 277 276 276 275 276 277 278 278 281 280 280 281 283 283 282 281 279 277 278 279 279 277 277 277 260
292 293 292 290 288 287 281 277 276 276 277 278 279 281 282 282 280 281 281 279 280 279 280 279 279 277 274 273 274 274 272 270 270
289 290 291 290 288 286 284 281 279 278 277 277 278 279 280 282 283 282 282 282 280 279 279 278 277 276 273 268 269 271 270 269 262
286 286 286 286 284 283 283 283 283 282 282 282 281 280 280 280 280 280 281 281 280 279 278 276 275 274 273 269 265 267 270 270 271
285 284 284 282 282 283 282 283 284 285 285 285 284 283 283 283 282 280 280 280 278 277 277 277 276 273 270 268 267 267 266 266 266
283 284 284 283 282 282 282 283 284 285 284 284 284 285 287 285 285 283 284 282 280 277 272 270 267 268 269 268 265 262 264 264 265
Height
5963 5964 5962 5960 5959 5959 5959 5959 5959 5959 5958 5957 5956 5954 5953 5951 5950 5948 5947 5947 5946 5946 5945 5944 5945 5942 5941 5942 5943 5942 5943 5944 5943
5959 5960 5961 5960 5955 5958 5958 5958 5957 5957 5957 5956 5955 5954 5952 5951 5949 5947 5946 5945 5944 5943 5942 5940 5939 5939 5938 5937 5937 5938 5939 5939 5939
5955 5957 5958 5957 5952 5955 5954 5953 5954 5954 5953 5954 5953 5952 5951 5949 5947 5945 5942 5941 5939 5937 5936 5937 5936 5934 5933 5933 5932 5932 5933 5933 5934
5951 5952 5953 5954 5952 5949 5951 5951 5949 5949 5948 5947 5948 5947 5946 5946 5943 5941 5938 5935 5934 5931 5931 5930 5930 5930 5929 5927 5927 5927 5927 5928 5929
5947 5947 5948 5948 5947 5941 5945 5945 5945 5945 5944 5943 5942 5941 5940 5938 5938 5936 5934 5930 5928 5925 5922 5918 5920 5922 5921 5922 5922 5921 5921 5921 5923
5944 5942 5943 5943 5942 5942 5943 5937 5941 5940 5938 5939 5935 5936 5935 5933 5932 5929 5926 5925 5922 5916 5912 5911 5910 5913 5915 5914 5916 5916 5914 5915 5916
5937 5939 5937 5936 5937 5938 5938 5937 5936 5933 5932 5932 5932 5931 5931 5930 5926 5923 5921 5920 5917 5910 5905 5899 5901 5905 5910 5913 5912 5912 5909 5909 5910
5937 5930 5933 5931 5930 5932 5931 5932 5930 5929 5929 5928 5927 5926 5924 5922 5919 5916 5914 5914 5912 5908 5905 5902 5900 5896 5907 5904 5905 5906 5901 5904 5909
5931 5927 5926 5926 5925 5924 5924 5924 5923 5922 5922 5922 5922 5920 5918 5915 5913 5911 5910 5908 5907 5904 5903 5902 5902 5903 5905 5904 5905 5903 5902 5899 5898
5925 5922 5920 5918 5917 5917 5917 5916 5915 5914 5914 5914 5913 5912 5910 5908 5906 5906 5904 5902 5901 5902 5900 5899 5900 5901 5901 5901 5901 5899 5895 5895 5894
5918 5917 5914 5912 5910 5908 5910 5910 5908 5907 5906 5905 5906 5904 5903 5901 5900 5899 5898 5898 5895 5894 5894 5893 5893 5893 5893 5894 5894 5892 5889 5891 5888
5912 5909 5907 5906 5902 5903 5900 5900 5899 5900 5898 5896 5896 5895 5894 5894 5892 5891 5890 5888 5887 5886 5885 5885 5886 5885 5886 5887 5886 5885 5884 5883 5879
5902 5902 5900 5898 5896 5895 5894 5891 5889 5890 5889 5888 5885 5885 5885 5885 5884 5882 5881 5880 5878 5878 5877 5876 5877 5877 5877 5879 5879 5878 5878 5877 5877
5894 5891 5892 5890 5887 5887 5884 5883 5881 5880 5879 5877 5877 5876 5875 5874 5874 5873 5872 5870 5869 5868 5868 5867 5867 5868 5868 5869 5869 5869 5871 5874 5874
5884 5883 5881 5880 5878 5876 5875 5874 5872 5870 5869 5867 5866 5865 5865 5865 5863 5862 5862 5860 5858 5858 5858 5858 5859 5860 5860 5861 5861 5861 5859 5861 5864
5874 5873 5871 5869 5867 5866 5865 5863 5862 5862 5860 5858 5856 5854 5852 5851 5851 5851 5850 5849 5847 5846 5845 5845 5847 5849 5849 5849 5850 5851 5852 5852 5851
5865 5862 5860 5858 5855 5854 5852 5851 5850 5849 5849 5847 5846 5844 5842 5840 5838 5837 5837 5835 5834 5834 5833 5832 5832 5833 5835 5837 5836 5838 5840 5841 5843
5855 5853 5851 5848 5845 5842 5841 5839 5837 5836 5835 5834 5832 5830 5830 5828 5825 5823 5821 5819 5818 5817 5817 5817 5817 5819 5819 5821 5823 5824 5824 5827 5828
5845 5843 5841 5838 5835 5832 5830 5828 5825 5823 5821 5818 5816 5814 5813 5811 5810 5808 5805 5803 5802 5801 5799 5799 5798 5800 5803 5805 5806 5808 5810 5811 5813
5832 5831 5828 5826 5824 5821 5819 5816 5814 5811 5807 5804 5801 5799 5797 5795 5792 5791 5789 5785 5781 5779 5780 5779 5780 5780 5781 5784 5790 5793 5794 5795 5797